Regional Weather Roundup
Issued by NWS

Home | Current Version | Previous Version | Graphics & Text | Print | Product List | Glossary Off
Versions: 1 2 3 4 5 6 7 8 9 10 11 12 13 14 15 16 17 18 19 20 21 22 23 24 25 26 27 28 29 30 31 32 33 34 35 36 37 38 39 40 41 42 43 44 45 46 47 48 49 50

000
ASUS45 KCYS 310210
RWRWY

WYOMING REGIONAL WEATHER ROUNDUP
NATIONAL WEATHER SERVICE CHEYENNE WY
800 PM MDT MON MAR 30 2015

NOTE:  "FAIR" INDICATES FEW OR NO CLOUDS BELOW 12,000 FEET
WITH NO SIGNIFICANT WEATHER AND/OR OBSTRUCTIONS TO VISIBILITY.

WYZ001-310300-
YELLOWSTONE NATIONAL PARK

CITY           SKY/WX    TMP DP  RH WIND       PRES   REMARKS
LK YELLOWSTONE   N/A     37  21  52 CALM      30.22S
W YELLOWSTONE  NOT AVBL

$$
WYZ002>013-054>058-071-098>099-310300-
NORTHERN WYOMING

CITY           SKY/WX    TMP DP  RH WIND       PRES   REMARKS
JACKSON        CLEAR     48  19  32 CALM      30.16R
CODY           FAIR      61  18  18 W13G21    30.06S
GREYBULL       FAIR      62  22  21 E3        30.00S
WORLAND        FAIR      53  26  35 SE8       30.02S
SHERIDAN       FAIR      49  31  49 SW8       30.01F
BUFFALO        FAIR      48  30  49 W10       30.07S
GILLETTE         N/A     43  29  57 CALM      30.04F
HULETT         FAIR      55  28  35 CALM      30.05R
NEWCASTLE      FAIR      54  23  30 N7        30.05S

$$
WYZ014>020-022>026-101>103-310300-
CENTRAL WYOMING

CITY           SKY/WX    TMP DP  RH WIND       PRES   REMARKS
BIG PINEY      FAIR      47  10  22 N10       30.20S
PINEDALE       FAIR      45  18  33 MISG      30.21F
DUBOIS         FAIR      46  14  27 W12       30.17S
LANDER         FAIR      59  14  17 NW8       30.09R
RIVERTON       FAIR      58  13  17 NW14      30.09S
CASPER         FAIR      46  20  35 NW5       30.07S
DOUGLAS        FAIR      54  20  26 N7        30.07R

$$
WYZ021-027>030-104>119-310300-
SOUTHERN WYOMING

CITY           SKY/WX    TMP DP  RH WIND       PRES   REMARKS
EVANSTON       FAIR      53  12  19 W8        30.20F
KEMMERER       FAIR      48  12  23 NW8       30.21S
FORT BRIDGER   FAIR      54   8  15 W5        30.22S
ROCK SPRINGS   FAIR      53   8  16 W12       30.18S
DIXON          FAIR      47  19  33 NE7       30.20S
RAWLINS        FAIR      54   7  15 W12       30.16S
SARATOGA       FAIR      46  12  25 W8        30.19S
LARAMIE        FAIR      48  14  25 W9        30.17R
CHEYENNE       FAIR      57  18  21 N3        30.12R
TORRINGTON     FAIR      60  22  23 N6        30.03R
PINE BLUFFS    FAIR      54  23  30 CALM      30.10R

$$


USA.gov is the U.S. government's official web portal to all federal, state and local government web resources and services.